Weather History for Milwaukee, WI

Change the Weather History Date:

Tuesday, January 29, 2013

  Actual Average Record
Temperature  
Mean Temperature 49 °F 22 °F  
Max Temperature 60 °F 29 °F 60 °F (2013)
Min Temperature 37 °F 16 °F -23 °F (1966)
Degree Days  
Heating Degree Days 16 43  
Month to date heating degree days 1166 1242  
Since 1 July heating degree days 3495 3802  
Cooling Degree Days 0 0  
Month to date cooling degree days 0 0  
Year to date cooling degree days 0 0  
Moisture  
Dew Point 46 °F    
Average Humidity 94    
Maximum Humidity 100    
Minimum Humidity 87    
Precipitation  
Precipitation 1.67 in 0.06 in 1.67 in (2013)
Month to date precipitation 2.85 1.65  
Year to date precipitation 2.85 1.65  
Snow  
Snow 0.00 in 0.50 in 9.60 in (1947)
Month to date snowfall 3.4 13.8  
Since 1 July snowfall 10.3 27.1  
Snow Depth 0.00 in    
Sea Level Pressure  
Sea Level Pressure 29.58 in    
Wind  
Wind Speed 7 mph (SSW)    
Max Wind Speed 22 mph    
Max Gust Speed 29 mph    
Visibility 3 miles    
Events Fog , Rain , Thunderstorm    
T = Trace of Precipitation, MM = Missing Value Source: NWS Daily Summary

Daily Weather History Graph

Daily Weather History Graph

Search for Another Location

Airport:

Trip Planner

Search our weather history database for the weather conditions in past years. The results will help you decide how hot, cold, wet, or windy it might be!

Date:

Astronomy

Jan. 29, 2013 Rise Set
Actual Time 7:09 AM CST 5:00 PM CST
Civil Twilight 6:39 AM CST 5:31 PM CST
Nautical Twilight 6:04 AM CST 6:05 PM CST
Astronomical Twilight 5:31 AM CST 6:38 PM CST
Moon 8:02 PM CST (1/29) 8:00 AM CST (1/29)
Length of Visible Light 10h 52m
Length of Day
9h 51m
Waning Gibbous, 93% of the Moon is Illuminated
Jan 29
Waning Gibbous
Feb 3
Last Quarter
Feb 10
New
Feb 17
First Quarter
Feb 25
Full

Hourly Weather History & Observations

Time (CST) Temp. Windchill Dew Point Humidity Pressure Visibility Wind Dir Wind Speed Gust Speed Precip Events Conditions
12:10 AM 37.4 °F 29.3 °F 35.6 °F 93% 29.82 in 2.5 mi SE 12.7 mph - 0.00 in Rain Light Rain
12:30 AM 37.4 °F 29.8 °F 35.6 °F 93% 29.82 in 2.5 mi SE 11.5 mph - 0.02 in Rain , Thunderstorm Light Thunderstorms and Rain
12:52 AM 37.0 °F 30.4 °F 37.0 °F 100% 29.83 in 2.5 mi SSE 9.2 mph - 0.14 in Rain , Thunderstorm Heavy Thunderstorms and Rain
1:32 AM 37.4 °F - 37.4 °F 100% 29.78 in 4.0 mi Calm Calm - 0.39 in Rain , Thunderstorm Light Thunderstorms and Rain
1:52 AM 37.9 °F 30.0 °F 37.9 °F 100% 29.78 in 6.0 mi SE 12.7 mph - 0.39 in Rain Light Rain
1:57 AM 37.4 °F 29.8 °F 37.4 °F 100% 29.76 in 0.5 mi SE 11.5 mph - 0.00 in Rain Light Rain
2:32 AM 37.4 °F 32.1 °F 37.4 °F 100% 29.72 in 0.5 mi ESE 6.9 mph - 0.04 in Rain , Thunderstorm Heavy Thunderstorms and Rain
2:49 AM 37.4 °F 30.8 °F 37.4 °F 100% 29.74 in 0.8 mi NNW 9.2 mph - 0.19 in Rain Rain
2:52 AM 37.9 °F 34.4 °F 37.0 °F 97% 29.76 in 1.0 mi North 4.6 mph - 0.20 in Rain Rain
3:28 AM 37.4 °F 34.9 °F 37.4 °F 100% 29.70 in 0.5 mi ENE 3.5 mph - 0.02 in Rain Light Rain
3:52 AM 37.9 °F 35.5 °F 37.9 °F 100% 29.70 in 0.1 mi NE 3.5 mph - 0.02 in Fog Fog
4:52 AM 37.9 °F - 37.9 °F 100% 29.68 in 0.1 mi Calm Calm - N/A Fog Fog
5:52 AM 37.0 °F - 37.0 °F 100% 29.66 in 0.1 mi Calm Calm - N/A Fog Fog
6:52 AM 37.0 °F - 37.0 °F 100% 29.65 in 0.1 mi Calm Calm - N/A Fog Fog
7:15 AM 37.4 °F 34.9 °F 37.4 °F 100% 29.64 in 0.2 mi West 3.5 mph - 0.00 in Fog , Rain Light Rain
7:30 AM 39.2 °F 35.0 °F 39.2 °F 100% 29.64 in 0.8 mi SSW 5.8 mph - 0.05 in Rain Rain
7:32 AM 39.2 °F 34.2 °F 39.2 °F 100% 29.65 in 1.0 mi SSW 6.9 mph - 0.06 in Rain Rain
7:41 AM 39.2 °F 35.9 °F 39.2 °F 100% 29.64 in 1.0 mi SSW 4.6 mph - 0.08 in Rain Rain
7:52 AM 41.0 °F 38.0 °F 41.0 °F 100% 29.65 in 1.8 mi South 4.6 mph - 0.09 in Rain Light Rain
8:24 AM 41.0 °F 39.0 °F 41.0 °F 100% 29.62 in 0.8 mi SSW 3.5 mph - 0.00 in   Mostly Cloudy
8:35 AM 42.8 °F - 42.8 °F 100% 29.61 in 0.8 mi Calm Calm - 0.00 in   Overcast
8:52 AM 43.0 °F 39.5 °F 43.0 °F 100% 29.63 in 0.5 mi South 5.8 mph - 0.00 in   Overcast
8:59 AM 42.8 °F 41.1 °F 42.8 °F 100% 29.61 in 0.5 mi South 3.5 mph - N/A   Overcast
9:52 AM 45.0 °F 40.1 °F 44.1 °F 97% 29.61 in 0.5 mi SSE 9.2 mph - N/A   Overcast
10:12 AM 48.2 °F - 46.4 °F 93% 29.59 in 1.2 mi South 6.9 mph - N/A   Overcast
10:30 AM 50.0 °F - 50.0 °F 100% 29.58 in 1.8 mi South 9.2 mph - N/A   Overcast
10:44 AM 51.8 °F - 51.8 °F 100% 29.56 in 2.0 mi South 10.4 mph - N/A   Overcast
10:52 AM 53.1 °F - 52.0 °F 96% 29.58 in 2.5 mi South 8.1 mph - N/A   Overcast
10:59 AM 53.6 °F - 53.6 °F 100% 29.57 in 3.0 mi South 11.5 mph - N/A   Overcast
11:52 AM 59.0 °F - 55.9 °F 90% 29.57 in 8.0 mi SW 17.3 mph 28.8 mph N/A   Overcast
12:05 PM 59.0 °F - 55.4 °F 88% 29.56 in 7.0 mi SW 16.1 mph 24.2 mph 0.01 in   Overcast
12:52 PM 59.0 °F - 55.9 °F 90% 29.54 in 6.0 mi SW 15.0 mph - N/A   Overcast
1:52 PM 59.0 °F - 55.9 °F 90% 29.52 in 5.0 mi SSW 9.2 mph - N/A   Overcast
2:09 PM 60.8 °F - 57.2 °F 88% 29.50 in 5.0 mi SW 12.7 mph 17.3 mph N/A   Overcast
2:21 PM 60.8 °F - 57.2 °F 88% 29.50 in 5.0 mi SSW 9.2 mph - N/A   Mostly Cloudy
2:28 PM 60.8 °F - 57.2 °F 88% 29.50 in 5.0 mi SSW 9.2 mph - 0.01 in   Mostly Cloudy
2:38 PM 59.0 °F - 57.2 °F 94% 29.49 in 5.0 mi SW 8.1 mph - N/A   Mostly Cloudy
2:52 PM 59.0 °F - 57.0 °F 93% 29.50 in 5.0 mi South 8.1 mph - N/A   Overcast
3:21 PM 57.2 °F - 55.4 °F 94% 29.51 in 1.8 mi SSW 4.6 mph - 0.00 in Rain Light Rain
3:26 PM 57.2 °F - 57.2 °F 100% 29.51 in 1.5 mi SSW 5.8 mph - 0.02 in Rain Light Rain
3:35 PM 57.2 °F - 57.2 °F 100% 29.50 in 2.0 mi SSW 4.6 mph - 0.04 in Rain Light Rain
3:52 PM 57.9 °F - 57.0 °F 97% 29.50 in 1.5 mi West 6.9 mph - 0.08 in Rain Rain
4:00 PM 59.0 °F - 57.2 °F 94% 29.49 in 3.0 mi West 8.1 mph - 0.00 in Rain Light Rain
4:17 PM 55.4 °F - 53.6 °F 94% 29.48 in 4.0 mi WNW 12.7 mph - 0.03 in Rain Rain
4:25 PM 55.4 °F - 53.6 °F 94% 29.49 in 4.0 mi WNW 5.8 mph - 0.04 in Rain Light Rain
4:52 PM 54.0 °F - 53.1 °F 97% 29.50 in 4.0 mi NE 3.5 mph - 0.12 in Rain Rain
5:52 PM 51.1 °F - 51.1 °F 100% 29.47 in 4.0 mi North 4.6 mph - 0.09 in Rain Light Rain
6:24 PM 50.0 °F - 50.0 °F 100% 29.48 in 4.0 mi Calm Calm - 0.04 in Rain Light Rain
6:33 PM 50.0 °F - 50.0 °F 100% 29.49 in 1.5 mi Calm Calm - 0.05 in Rain Light Rain
6:52 PM 50.0 °F - 50.0 °F 100% 29.49 in 0.8 mi Calm Calm - 0.08 in Fog , Rain Rain
6:57 PM 51.8 °F - 51.8 °F 100% 29.48 in 1.5 mi Calm Calm - 0.02 in Fog , Rain Rain
7:07 PM 50.0 °F - 50.0 °F 100% 29.48 in 1.5 mi North 6.9 mph - 0.04 in Fog , Rain Rain
7:11 PM 51.8 °F - 51.8 °F 100% 29.49 in 0.2 mi North 5.8 mph - 0.06 in Fog , Rain Rain
7:27 PM 48.2 °F - 48.2 °F 100% 29.49 in 1.5 mi NNE 12.7 mph 18.4 mph 0.10 in Rain Rain
7:44 PM 46.4 °F 42.9 °F 46.4 °F 100% 29.49 in 1.5 mi NNE 6.9 mph - 0.15 in Rain Rain
7:52 PM 46.0 °F 42.5 °F 46.0 °F 100% 29.50 in 1.0 mi NNE 6.9 mph - 0.17 in Rain Rain
8:40 PM 44.6 °F 40.7 °F 44.6 °F 100% 29.48 in 4.0 mi North 6.9 mph - 0.09 in Rain Light Rain
8:52 PM 43.0 °F 38.2 °F 43.0 °F 100% 29.49 in 5.0 mi North 8.1 mph - 0.10 in Rain Light Rain
9:52 PM 42.1 °F 36.6 °F 41.0 °F 96% 29.47 in 4.0 mi North 9.2 mph - 0.08 in Rain Rain
10:36 PM 39.2 °F 32.0 °F 39.2 °F 100% 29.46 in 5.0 mi North 11.5 mph - 0.04 in Rain Light Rain
10:52 PM 39.9 °F 32.9 °F 39.0 °F 97% 29.47 in 5.0 mi North 11.5 mph - 0.06 in Rain Light Rain
11:28 PM 39.2 °F 32.5 °F 37.4 °F 93% 29.46 in 9.0 mi North 10.4 mph - 0.04 in Rain Light Rain
11:52 PM 37.9 °F 30.5 °F 37.0 °F 97% 29.47 in 10.0 mi North 11.5 mph - 0.05 in Rain Light Rain